QPF
0.00 0.00 0.00 0.00 0.00 0.00 0.00 0.00 0.00 0.00 0.00 0.00 0.00 0.00 0.00 0.00 0.00 0.00 0.00 0.00 0.00 0.00 0.00 0.00 0.00 0.00 0.00 0.00 0.00 0.00 0.00 0.00 0.00 0.00 0.00 0.00 0.00 0.00 0.00 0.00 0.00 0.00 0.00 0.00 0.00
0.00 0.00 0.00 0.00 0.00 0.00 0.00 0.00 0.00 0.00 0.00 0.00 0.00 0.00 0.00 0.00 0.00 0.00 0.00 0.00 0.00 0.00 0.00 0.00 0.00 0.00 0.00 0.00 0.00 0.00 0.00 0.00 0.00 0.00 0.00 0.00 0.00 0.00 0.00 0.00 0.00 0.00 0.00 0.00 0.00
0.00 0.00 0.00 0.00 0.00 0.00 0.00 0.00 0.00 0.00 0.00 0.00 0.00 0.00 0.00 0.00 0.00 0.00 0.00 0.00 0.00 0.00 0.00 0.00 0.00 0.00 0.00 0.00 0.00 0.00 0.00 0.00 0.00 0.00 0.00 0.00 0.00 0.00 0.00 0.00 0.00 0.00 0.00 0.00 0.00
0.00 0.00 0.00 0.00 0.00 0.00 0.00 0.00 0.00 0.00 0.00 0.00 0.00 0.00 0.00 0.00 0.00 0.00 0.00 0.00 0.00 0.00 0.00 0.00 0.00 0.00 0.00 0.00 0.00 0.00 0.00 0.00 0.00 0.00 0.00 0.00 0.00 0.00 0.00 0.00 0.00 0.00 0.00 0.00 0.00
0.00 0.00 0.00 0.00 0.00 0.00 0.00 0.00 0.00 0.00 0.00 0.00 0.00 0.00 0.00 0.00 0.00 0.00 0.00 0.00 0.00 0.00 0.00 0.00 0.00 0.00 0.00 0.00 0.00 0.00 0.00 0.00 0.00 0.00 0.00 0.00 0.00 0.00 0.00 0.00 0.00 0.00 0.00 0.00 0.00
0.00 0.00 0.00 0.00 0.00 0.00 0.00 0.00 0.00 0.00 0.00 0.00 0.00 0.00 0.00 0.00 0.00 0.00 0.00 0.00 0.00 0.00 0.00 0.00 0.00 0.00 0.00 0.00 0.00 0.00 0.00 0.00 0.00 0.00 0.00 0.00 0.00 0.00 0.00 0.00 0.00 0.00 0.00 0.00 0.00
0.00 0.00 0.00 0.00 0.00 0.00 0.00 0.00 0.00 0.00 0.00 0.00 0.00 0.00 0.00 0.00 0.00 0.00 0.00 0.00 0.00 0.00 0.00 0.00 0.00 0.00 0.00 0.00 0.00 0.00 0.00 0.00 0.00 0.00 0.00 0.00 0.00 0.00 0.00 0.00 0.00 0.00 0.00 0.00 0.00
0.00 0.00 0.00 0.00 0.00 0.00 0.00 0.00 0.00 0.00 0.00 0.00 0.00 0.00 0.00 0.00 0.00 0.00 0.00 0.00 0.00 0.00 0.00 0.00 0.00 0.00 0.00 0.00 0.00 0.00 0.00 0.00 0.00 0.00 0.00 0.00 0.00 0.00 0.00 0.00 0.00 0.00 0.00 0.00 0.00
0.00 0.00 0.00 0.00 0.00 0.00 0.00 0.00 0.00 0.00 0.00 0.00 0.00 0.00 0.00 0.00 0.00 0.00 0.00 0.00 0.00 0.00 0.00 0.00 0.00 0.00 0.00 0.00 0.00 0.00 0.00 0.00 0.00 0.00 0.00 0.00 0.00 0.00 0.00 0.00 0.00 0.00 0.00 0.00 0.00
0.00 0.00 0.00 0.00 0.00 0.00 0.00 0.00 0.00 0.00 0.00 0.00 0.00 0.00 0.00 0.00 0.00 0.00 0.00 0.00 0.00 0.00 0.00 0.00 0.00 0.00 0.00 0.00 0.00 0.00 0.00 0.00 0.00 0.00 0.00 0.00 0.00 0.00 0.00 0.00 0.00 0.00 0.00 0.00 0.00
0.00 0.00 0.00 0.00 0.00 0.00 0.00 0.00 0.00 0.00 0.00 0.00 0.00 0.00 0.00 0.00 0.00 0.00 0.00 0.00 0.00 0.00 0.00 0.00 0.00 0.00 0.00 0.00 0.00 0.00 0.00 0.00 0.00 0.00 0.00 0.00 0.00 0.00 0.00 0.00 0.00 0.00 0.00 0.00 0.00
0.00 0.00 0.00 0.00 0.00 0.00 0.00 0.00 0.00 0.00 0.00 0.00 0.00 0.00 0.00 0.00 0.00 0.00 0.00 0.00 0.00 0.00 0.00 0.00 0.00 0.00 0.00 0.00 0.00 0.00 0.00 0.00 0.00 0.00 0.00 0.00 0.00 0.00 0.00 0.00 0.00 0.00 0.00 0.00 0.00
0.00 0.00 0.00 0.00 0.00 0.00 0.00 0.00 0.00 0.00 0.00 0.00 0.00 0.00 0.00 0.00 0.00 0.00 0.00 0.00 0.00 0.00 0.00 0.00 0.00 0.00 0.00 0.00 0.00 0.00 0.00 0.00 0.00 0.00 0.00 0.00 0.00 0.00 0.00 0.00 0.00 0.00 0.00 0.00 0.00
0.00 0.00 0.00 0.00 0.00 0.00 0.00 0.00 0.00 0.00 0.00 0.00 0.00 0.00 0.00 0.00 0.00 0.00 0.00 0.00 0.00 0.00 0.00 0.00 0.00 0.00 0.00 0.00 0.00 0.00 0.00 0.00 0.00 0.00 0.00 0.00 0.00 0.00 0.00 0.00 0.00 0.00 0.00 0.00 0.00
0.00 0.00 0.00 0.00 0.00 0.00 0.00 0.00 0.00 0.00 0.00 0.00 0.00 0.00 0.00 0.00 0.00 0.00 0.00 0.00 0.00 0.00 0.00 0.00 0.00 0.00 0.00 0.00 0.00 0.00 0.00 0.00 0.00 0.00 0.00 0.00 0.00 0.00 0.00 0.00 0.00 0.00 0.00 0.00 0.00
0.00 0.00 0.00 0.00 0.00 0.00 0.00 0.00 0.00 0.00 0.00 0.00 0.00 0.00 0.00 0.00 0.00 0.00 0.00 0.00 0.00 0.00 0.00 0.00 0.00 0.00 0.00 0.00 0.00 0.00 0.00 0.00 0.00 0.00 0.00 0.00 0.00 0.00 0.00 0.00 0.00 0.00 0.00 0.00 0.00
0.00 0.00 0.00 0.00 0.00 0.00 0.00 0.00 0.00 0.00 0.00 0.00 0.00 0.00 0.00 0.00 0.00 0.00 0.00 0.00 0.00 0.00 0.00 0.00 0.00 0.00 0.00 0.00 0.00 0.00 0.00 0.00 0.00 0.00 0.00 0.00 0.00 0.00 0.00 0.00 0.00 0.00 0.00 0.00 0.00
0.00 0.00 0.00 0.00 0.00 0.00 0.00 0.00 0.00 0.00 0.00 0.00 0.00 0.00 0.00 0.00 0.00 0.00 0.00 0.00 0.00 0.00 0.00 0.00 0.00 0.00 0.00 0.00 0.00 0.00 0.00 0.01 0.01 0.00 0.00 0.00 0.00 0.00 0.00 0.00 0.00 0.00 0.00 0.00 0.00
0.00 0.00 0.00 0.00 0.00 0.00 0.00 0.00 0.00 0.00 0.00 0.00 0.00 0.00 0.00 0.00 0.00 0.00 0.00 0.00 0.00 0.00 0.00 0.00 0.00 0.00 0.00 0.00 0.00 0.00 0.00 0.00 0.01 0.00 0.00 0.00 0.00 0.00 0.00 0.00 0.00 0.00 0.00 0.00 0.00
0.00 0.00 0.00 0.00 0.00 0.00 0.00 0.00 0.00 0.00 0.00 0.00 0.00 0.00 0.00 0.00 0.00 0.00 0.00 0.00 0.00 0.00 0.00 0.00 0.00 0.00 0.00 0.00 0.00 0.00 0.00 0.01 0.04 0.03 0.01 0.00 0.00 0.00 0.00 0.00 0.00 0.00 0.00 0.00 0.00
0.00 0.00 0.00 0.00 0.00 0.00 0.00 0.00 0.00 0.00 0.00 0.00 0.00 0.00 0.00 0.00 0.00 0.00 0.00 0.00 0.00 0.00 0.00 0.00 0.00 0.00 0.00 0.00 0.00 0.00 0.00 0.01 0.02 0.02 0.03 0.01 0.00 0.00 0.00 0.00 0.00 0.00 0.00 0.00 0.00
0.00 0.00 0.00 0.00 0.00 0.00 0.00 0.00 0.00 0.00 0.00 0.00 0.00 0.00 0.00 0.00 0.00 0.00 0.00 0.00 0.00 0.00 0.00 0.00 0.00 0.00 0.00 0.00 0.00 0.00 0.00 0.02 0.03 0.03 0.04 0.03 0.00 0.00 0.00 0.00 0.00 0.00 0.00 0.00 0.00
0.00 0.00 0.00 0.00 0.00 0.00 0.00 0.00 0.00 0.00 0.00 0.00 0.00 0.00 0.00 0.00 0.00 0.00 0.00 0.00 0.00 0.00 0.00 0.00 0.00 0.00 0.00 0.00 0.00 0.00 0.00 0.00 0.02 0.02 0.01 0.02 0.00 0.00 0.00 0.00 0.00 0.00 0.00 0.00 0.00
0.00 0.00 0.00 0.00 0.00 0.00 0.00 0.00 0.00 0.00 0.00 0.00 0.00 0.00 0.00 0.00 0.00 0.00 0.00 0.00 0.00 0.00 0.00 0.00 0.00 0.00 0.00 0.00 0.00 0.00 0.00 0.00 0.01 0.01 0.01 0.01 0.00 0.00 0.00 0.00 0.00 0.00 0.00 0.00 0.00
0.00 0.00 0.00 0.00 0.00 0.00 0.00 0.00 0.00 0.00 0.00 0.00 0.00 0.00 0.00 0.00 0.00 0.00 0.00 0.00 0.00 0.00 0.00 0.00 0.00 0.00 0.00 0.00 0.00 0.00 0.00 0.00 0.00 0.00 0.00 0.00 0.00 0.00 0.00 0.00 0.00 0.00 0.00 0.00 0.00
0.00 0.00 0.00 0.00 0.00 0.00 0.00 0.00 0.00 0.00 0.00 0.00 0.00 0.00 0.00 0.00 0.00 0.00 0.00 0.00 0.00 0.00 0.00 0.00 0.00 0.00 0.00 0.00 0.00 0.00 0.00 0.00 0.00 0.00 0.00 0.00 0.00 0.00 0.00 0.00 0.00 0.00 0.00 0.00 0.00
0.00 0.00 0.00 0.00 0.00 0.00 0.00 0.00 0.00 0.00 0.00 0.00 0.00 0.00 0.00 0.00 0.00 0.00 0.00 0.00 0.00 0.00 0.00 0.00 0.00 0.00 0.00 0.00 0.00 0.00 0.00 0.00 0.00 0.00 0.00 0.01 0.00 0.00 0.00 0.00 0.00 0.00 0.00 0.00 0.00
MSLP
1018.88 1018.60 1018.33 1018.06 1017.80 1017.57 1017.34 1017.09 1016.78 1016.56 1016.32 1016.03 1015.70 1015.26 1014.65 1014.12 1013.38 1013.19 1012.02 1013.01 1012.58 1012.22 1012.06 1010.00 1008.89 1008.52 1007.98 1007.00 1006.84 1006.08 1004.39 1002.06 1000.77 1000.33 1000.96 1001.32 1002.70 1003.05 1003.50 1003.88 1003.48 1003.08 1002.56 1002.21 1002.32
1018.94 1018.65 1018.41 1018.14 1017.90 1017.67 1017.44 1017.19 1016.91 1016.56 1016.22 1015.90 1015.54 1015.06 1014.57 1014.24 1012.17 1012.09 1013.21 1013.00 1012.79 1012.20 1010.17 1009.15 1008.18 1008.06 1006.84 1006.64 1006.34 1005.82 1003.86 1002.30 1002.61 1002.66 1002.78 1002.80 1003.54 1003.69 1003.92 1003.70 1003.37 1002.88 1002.65 1002.63 1002.54
1018.94 1018.61 1018.45 1018.24 1018.02 1017.76 1017.50 1017.27 1016.94 1016.57 1016.18 1015.81 1015.48 1015.23 1014.68 1014.18 1011.80 1011.93 1013.06 1013.01 1012.81 1012.26 1010.18 1009.38 1008.64 1007.84 1006.64 1006.43 1005.63 1005.10 1004.42 1003.34 1004.01 1004.12 1004.41 1004.33 1004.09 1004.08 1003.77 1003.34 1003.20 1002.96 1002.68 1002.74 1002.68
1018.92 1018.56 1018.36 1018.15 1017.92 1017.75 1017.50 1017.26 1016.93 1016.54 1016.14 1015.78 1015.57 1015.26 1014.84 1013.55 1011.34 1011.92 1012.86 1012.96 1012.62 1011.58 1009.57 1008.76 1007.85 1007.05 1006.61 1006.02 1005.94 1005.96 1004.91 1004.74 1004.75 1004.77 1004.91 1004.72 1004.34 1004.02 1003.83 1003.48 1003.45 1003.32 1003.22 1003.26 1003.05
1018.92 1018.60 1018.28 1018.02 1017.80 1017.54 1017.30 1017.07 1016.80 1016.48 1016.14 1015.73 1015.29 1015.28 1014.66 1011.93 1011.30 1012.02 1012.68 1012.48 1011.73 1010.31 1009.54 1008.72 1008.08 1007.68 1006.54 1006.45 1006.26 1005.82 1005.20 1005.20 1005.13 1005.04 1004.84 1004.68 1004.30 1003.80 1003.45 1003.33 1003.33 1003.33 1003.30 1003.11 1003.02
1019.02 1018.72 1018.36 1017.96 1017.63 1017.37 1017.08 1016.82 1016.57 1016.32 1015.96 1015.48 1015.00 1015.00 1013.59 1011.05 1011.20 1011.24 1011.26 1010.86 1010.41 1009.86 1009.52 1009.18 1008.74 1008.71 1007.61 1006.99 1006.58 1005.82 1005.90 1005.46 1005.06 1004.50 1004.50 1004.37 1003.84 1003.48 1002.99 1003.01 1003.14 1003.33 1003.14 1002.90 1002.84
1019.07 1018.73 1018.35 1017.95 1017.51 1017.20 1016.93 1016.64 1016.36 1016.15 1015.83 1015.32 1014.93 1014.12 1011.28 1011.12 1010.83 1010.71 1010.64 1010.25 1010.44 1010.19 1009.54 1009.35 1009.44 1008.89 1007.90 1006.80 1006.35 1006.43 1005.88 1004.84 1004.04 1004.04 1004.06 1004.08 1003.46 1002.18 1002.20 1002.74 1003.14 1003.10 1003.04 1002.87 1002.85
1019.25 1018.76 1018.25 1017.80 1017.38 1016.99 1016.64 1016.36 1016.09 1015.86 1015.55 1015.11 1014.78 1013.40 1010.83 1010.71 1010.40 1010.11 1009.92 1009.55 1009.91 1010.01 1010.04 1009.69 1009.60 1008.92 1008.23 1007.49 1006.70 1005.82 1005.09 1003.66 1002.43 1003.54 1003.53 1003.58 1002.72 1001.88 1001.92 1002.77 1002.85 1002.80 1002.90 1002.93 1002.72
1019.36 1018.84 1018.18 1017.62 1017.26 1016.81 1016.44 1016.14 1015.74 1015.54 1015.31 1014.93 1014.11 1012.18 1009.96 1010.78 1010.09 1009.86 1009.82 1009.56 1009.50 1009.34 1009.32 1009.66 1009.23 1008.25 1007.72 1006.86 1005.07 1003.72 1003.79 1003.05 1002.76 1002.72 1003.38 1003.44 1002.36 1002.13 1002.10 1002.10 1002.25 1002.36 1002.26 1002.31 1002.16
1019.46 1018.88 1018.19 1017.54 1017.06 1016.65 1016.27 1015.97 1015.59 1015.43 1014.71 1013.50 1012.27 1011.40 1009.98 1010.09 1010.10 1010.14 1009.53 1009.96 1009.49 1009.17 1008.44 1008.36 1007.61 1007.09 1006.00 1005.27 1004.93 1004.96 1004.53 1003.95 1003.40 1003.17 1002.88 1002.52 1001.72 1001.68 1001.45 1001.37 1001.21 1001.04 1001.09 1001.52 1001.48
1019.50 1018.80 1018.06 1017.46 1016.86 1016.42 1016.11 1015.31 1015.02 1013.96 1012.40 1011.29 1010.62 1010.34 1010.03 1010.22 1010.18 1009.27 1009.49 1009.33 1008.90 1008.60 1007.44 1007.11 1006.95 1005.68 1006.10 1006.78 1006.75 1006.42 1005.66 1004.60 1003.87 1003.30 1002.94 1002.30 1001.43 1001.14 1001.08 1000.82 1000.55 1000.48 1000.36 1000.66 1000.87
1019.63 1018.83 1018.00 1017.30 1016.77 1016.38 1015.76 1013.32 1013.14 1012.72 1011.30 1010.68 1010.54 1010.46 1010.26 1010.44 1009.49 1009.09 1009.43 1008.99 1008.72 1007.88 1007.43 1006.41 1005.30 1005.98 1006.84 1007.22 1006.84 1006.26 1005.42 1004.33 1003.48 1003.20 1003.26 1002.34 1001.09 1000.41 999.96 999.85 1000.02 999.96 999.92 1000.05 1000.28
1019.64 1018.89 1018.00 1017.27 1016.60 1016.04 1013.73 1013.38 1012.81 1012.46 1011.32 1009.87 1009.88 1009.58 1009.62 1009.89 1009.24 1009.10 1009.36 1008.99 1008.45 1007.90 1007.06 1006.95 1006.27 1006.83 1006.98 1006.71 1006.22 1005.62 1005.05 1004.37 1004.21 1003.92 1003.16 1001.23 999.83 998.59 998.12 998.92 999.07 999.37 999.72 999.94 1000.04
1019.37 1018.67 1018.00 1017.29 1016.75 1013.22 1012.52 1012.78 1012.44 1012.79 1010.60 1009.40 1009.16 1009.17 1009.12 1009.06 1008.84 1009.19 1009.39 1009.42 1008.59 1007.82 1007.54 1006.79 1006.58 1006.77 1006.49 1006.22 1006.01 1005.80 1005.32 1005.32 1004.70 1003.84 1002.01 1001.44 998.70 998.20 997.68 998.12 998.52 999.08 999.14 999.39 999.53
1019.22 1018.30 1017.70 1017.62 1015.35 1012.54 1013.02 1012.63 1012.44 1012.68 1009.59 1009.10 1008.71 1009.34 1008.90 1008.73 1009.00 1008.67 1009.39 1009.19 1008.40 1008.16 1008.24 1006.52 1006.70 1006.58 1006.46 1005.97 1006.59 1006.20 1005.92 1005.50 1004.44 1003.22 1002.18 1000.25 998.38 996.99 997.09 997.22 997.29 997.99 998.44 998.97 999.34
1018.86 1018.04 1017.36 1015.58 1014.53 1012.91 1012.81 1012.97 1012.74 1011.33 1008.71 1008.33 1008.60 1008.74 1008.41 1008.23 1008.46 1008.55 1008.52 1008.58 1008.29 1008.28 1007.40 1006.54 1006.15 1006.99 1006.65 1006.82 1006.42 1005.84 1005.19 1004.28 1002.73 1001.79 1000.54 998.53 998.13 997.13 996.92 997.58 997.92 998.41 998.66 998.99 999.20
1018.29 1017.52 1017.25 1014.70 1012.91 1012.85 1012.81 1012.26 1010.95 1009.22 1008.84 1008.28 1008.60 1008.76 1008.67 1008.26 1008.36 1008.34 1008.34 1008.06 1007.82 1007.87 1006.64 1006.33 1005.38 1006.39 1007.08 1006.61 1005.61 1005.17 1004.88 1003.73 1001.36 1001.23 1000.14 999.74 998.31 996.80 996.79 997.67 998.16 998.50 998.45 998.86 999.24
1017.67 1017.07 1015.35 1013.74 1013.23 1013.28 1012.67 1011.36 1009.93 1008.57 1008.60 1008.88 1009.16 1009.04 1008.56 1008.61 1008.55 1008.62 1008.28 1007.66 1007.70 1008.66 1007.86 1006.48 1005.84 1005.99 1006.47 1006.40 1005.92 1005.76 1005.84 1005.57 1004.33 1002.38 1000.64 999.44 997.81 996.71 996.59 997.33 997.96 998.56 998.85 999.18 999.18
1017.16 1014.78 1013.56 1013.54 1013.60 1013.39 1012.34 1010.50 1008.83 1009.38 1010.10 1010.16 1009.75 1008.53 1008.07 1008.56 1008.60 1008.42 1008.10 1007.72 1007.68 1008.41 1008.44 1007.75 1006.51 1006.41 1006.34 1006.08 1006.55 1005.69 1005.97 1006.52 1005.98 1004.43 1002.33 999.95 997.94 998.04 997.60 998.02 998.32 998.58 998.85 998.90 998.89
1017.46 1014.38 1012.75 1013.54 1013.46 1013.16 1011.78 1010.29 1009.70 1010.72 1011.14 1011.04 1010.18 1009.48 1008.81 1008.58 1008.74 1008.31 1008.02 1007.68 1008.30 1008.89 1009.06 1008.54 1007.50 1006.77 1006.14 1006.49 1005.48 1005.39 1005.77 1006.24 1006.60 1005.16 1002.72 1000.50 999.00 997.37 998.32 998.53 998.56 998.51 998.72 999.16 998.85
1017.44 1013.75 1012.88 1012.88 1012.80 1012.08 1010.47 1009.67 1010.41 1010.86 1011.73 1011.47 1010.66 1010.09 1009.70 1009.43 1009.34 1008.99 1008.49 1008.22 1008.52 1009.10 1009.28 1009.40 1008.77 1007.06 1006.35 1005.33 1004.39 1004.72 1005.30 1006.27 1007.61 1006.44 1004.42 1002.05 999.69 998.72 999.40 999.75 1000.00 999.78 999.79 999.88 999.64
1016.64 1013.21 1012.58 1012.58 1011.65 1010.40 1010.23 1011.39 1012.44 1011.42 1011.73 1011.92 1011.58 1011.11 1010.60 1010.22 1009.99 1009.56 1008.80 1008.61 1009.46 1009.92 1009.94 1009.75 1009.03 1007.40 1006.09 1004.94 1004.72 1005.05 1005.10 1005.80 1007.60 1006.20 1005.20 1004.04 1000.48 1000.07 1000.33 1000.30 1000.42 1000.75 1000.57 1000.17 1000.16
1017.22 1013.79 1012.48 1012.60 1010.97 1010.26 1010.74 1011.18 1011.48 1011.78 1011.60 1011.55 1011.44 1011.31 1011.15 1011.11 1010.86 1010.04 1009.60 1009.62 1010.12 1010.44 1010.42 1010.50 1009.34 1007.92 1005.71 1004.12 1004.52 1004.87 1004.88 1005.53 1005.63 1005.93 1005.09 1003.91 1000.51 1000.67 1000.30 1000.36 1000.42 1000.41 1001.01 1001.24 1000.63
1017.71 1014.12 1011.98 1012.00 1012.73 1012.86 1012.19 1011.55 1011.08 1011.38 1012.03 1011.97 1011.80 1011.83 1011.60 1011.24 1010.92 1010.25 1009.76 1009.71 1010.22 1010.71 1011.30 1011.86 1010.98 1009.54 1007.26 1005.69 1005.08 1004.40 1004.27 1004.08 1004.44 1004.78 1003.88 1002.31 1000.01 999.75 999.86 999.94 1000.58 1000.74 1001.02 1001.11 1001.18
1017.56 1015.17 1015.43 1013.12 1012.34 1013.08 1013.27 1012.47 1011.71 1011.28 1011.59 1012.28 1011.94 1011.55 1011.48 1011.15 1010.74 1010.59 1010.13 1009.66 1009.96 1010.23 1010.34 1010.79 1010.21 1009.27 1007.42 1006.00 1005.02 1003.96 1003.19 1003.04 1002.59 1001.88 1001.22 999.99 999.37 998.85 999.45 1000.02 1000.30 1000.91 1000.94 1001.23 1001.44
1018.90 1017.53 1015.99 1015.32 1014.37 1013.67 1013.16 1012.48 1011.94 1011.69 1011.96 1011.76 1011.76 1011.82 1011.93 1011.52 1011.15 1010.29 1010.25 1010.03 1009.87 1009.82 1009.68 1009.88 1009.79 1009.83 1007.80 1006.75 1005.66 1003.56 1002.54 1001.49 1000.78 1000.29 999.86 999.42 998.74 999.22 999.40 999.74 1000.64 1000.81 1000.86 1000.94 1000.71
1019.67 1019.02 1018.39 1016.20 1014.68 1013.85 1012.82 1012.34 1012.28 1012.58 1012.50 1012.43 1012.48 1012.18 1011.88 1011.81 1011.72 1011.42 1011.05 1010.58 1010.19 1010.05 1009.50 1009.32 1009.41 1009.92 1008.28 1008.17 1005.54 1002.90 1001.40 999.74 999.47 999.40 999.47 999.38 998.96 999.30 998.88 999.18 999.88 1000.28 1000.50 1000.62 1001.03
Thickness
5707 5707 5707 5707 5708 5709 5710 5712 5713 5714 5715 5717 5719 5722 5725 5728 5733 5734 5736 5731 5733 5734 5735 5749 5753 5752 5755 5753 5755 5759 5742 5751 5767 5765 5764 5779 5756 5770 5771 5761 5772 5782 5788 5798 5801
5707 5707 5707 5707 5708 5709 5710 5711 5712 5713 5715 5716 5718 5720 5723 5724 5741 5734 5727 5726 5726 5730 5743 5742 5742 5744 5746 5745 5746 5738 5742 5753 5752 5753 5747 5754 5749 5748 5745 5749 5759 5770 5787 5792 5793
5707 5708 5708 5708 5709 5709 5710 5710 5712 5713 5714 5716 5717 5717 5720 5721 5735 5727 5723 5721 5721 5724 5738 5739 5738 5736 5733 5738 5740 5739 5728 5747 5737 5738 5734 5732 5737 5743 5735 5734 5749 5755 5769 5773 5779
5707 5709 5709 5709 5709 5709 5710 5710 5710 5712 5713 5714 5714 5714 5715 5724 5716 5728 5719 5716 5716 5721 5733 5730 5731 5724 5719 5718 5728 5709 5729 5728 5726 5725 5721 5716 5731 5728 5728 5733 5745 5754 5762 5759 5761
5706 5708 5709 5710 5710 5710 5710 5710 5711 5711 5711 5712 5713 5711 5715 5726 5719 5722 5715 5714 5716 5724 5719 5718 5713 5710 5709 5710 5711 5705 5714 5716 5718 5714 5714 5716 5714 5720 5722 5732 5740 5744 5748 5750 5752
5705 5706 5708 5710 5710 5710 5711 5711 5711 5711 5711 5712 5712 5710 5716 5712 5726 5723 5720 5721 5721 5719 5711 5709 5702 5700 5699 5698 5696 5705 5701 5703 5707 5711 5707 5702 5708 5716 5723 5728 5725 5728 5734 5740 5743
5704 5705 5706 5708 5709 5710 5710 5710 5711 5710 5709 5710 5710 5712 5724 5710 5724 5722 5720 5719 5715 5709 5701 5704 5698 5691 5696 5692 5705 5693 5684 5698 5705 5705 5699 5701 5694 5705 5725 5720 5711 5713 5719 5728 5730
5702 5704 5705 5707 5708 5709 5710 5710 5710 5709 5708 5708 5706 5712 5711 5724 5723 5721 5720 5716 5714 5708 5698 5698 5695 5688 5685 5693 5688 5684 5689 5684 5710 5700 5699 5695 5677 5707 5719 5707 5702 5706 5707 5712 5720
5699 5702 5704 5706 5706 5708 5709 5709 5709 5707 5705 5704 5707 5711 5707 5720 5714 5717 5715 5703 5704 5703 5700 5692 5688 5683 5684 5676 5686 5697 5676 5684 5688 5703 5688 5682 5680 5697 5707 5707 5702 5703 5705 5708 5715
5696 5699 5702 5704 5705 5706 5707 5707 5706 5703 5704 5708 5713 5701 5713 5698 5706 5706 5713 5701 5693 5691 5689 5686 5685 5677 5686 5685 5665 5665 5664 5670 5667 5680 5684 5679 5685 5694 5703 5704 5705 5710 5711 5705 5711
5694 5697 5701 5703 5704 5705 5704 5710 5708 5705 5712 5707 5707 5701 5701 5704 5707 5705 5704 5696 5694 5687 5678 5687 5672 5676 5675 5668 5664 5656 5652 5652 5665 5677 5669 5672 5680 5687 5694 5698 5701 5705 5707 5705 5704
5690 5695 5699 5701 5703 5702 5702 5713 5707 5707 5699 5712 5707 5701 5702 5698 5688 5696 5701 5684 5679 5672 5681 5682 5680 5682 5671 5661 5655 5653 5649 5653 5667 5672 5662 5665 5673 5689 5695 5695 5697 5699 5700 5699 5700
5687 5691 5696 5699 5701 5702 5714 5706 5711 5709 5693 5706 5705 5699 5696 5694 5684 5685 5689 5683 5675 5669 5676 5662 5675 5673 5662 5658 5653 5655 5649 5649 5645 5653 5662 5672 5677 5695 5706 5699 5696 5695 5694 5691 5687
5685 5688 5691 5695 5695 5719 5712 5712 5709 5702 5685 5692 5694 5696 5697 5693 5679 5693 5689 5676 5671 5666 5667 5668 5677 5663 5659 5654 5656 5638 5656 5643 5638 5639 5641 5668 5658 5684 5695 5686 5685 5681 5681 5677 5674
5682 5687 5689 5687 5701 5711 5705 5707 5705 5692 5671 5696 5694 5703 5696 5683 5677 5679 5686 5673 5663 5662 5659 5665 5661 5657 5650 5655 5647 5637 5646 5637 5638 5639 5642 5664 5668 5691 5697 5682 5684 5678 5673 5668 5663
5680 5684 5687 5696 5700 5707 5705 5700 5693 5672 5664 5688 5692 5681 5679 5682 5675 5677 5676 5681 5677 5660 5668 5669 5680 5658 5654 5650 5648 5650 5643 5648 5655 5654 5642 5680 5666 5673 5682 5669 5668 5666 5663 5659 5657
5679 5683 5683 5694 5698 5703 5700 5692 5673 5669 5694 5683 5675 5676 5670 5667 5665 5666 5660 5658 5654 5641 5656 5664 5671 5662 5652 5639 5654 5650 5636 5622 5649 5635 5634 5658 5659 5675 5684 5669 5664 5656 5657 5653 5652
5680 5682 5690 5696 5697 5694 5691 5680 5660 5689 5682 5687 5673 5669 5660 5662 5658 5654 5653 5653 5661 5643 5639 5642 5637 5652 5650 5640 5633 5632 5624 5602 5587 5620 5641 5665 5649 5670 5690 5675 5663 5656 5650 5647 5645
5678 5693 5695 5693 5689 5687 5678 5664 5680 5675 5670 5659 5661 5662 5663 5657 5656 5651 5648 5651 5656 5647 5628 5625 5637 5653 5648 5646 5634 5627 5612 5618 5600 5618 5617 5648 5668 5667 5666 5660 5651 5646 5642 5641 5641
5666 5684 5691 5685 5683 5676 5669 5662 5673 5667 5658 5652 5642 5655 5645 5651 5643 5645 5643 5651 5640 5639 5638 5628 5617 5640 5644 5638 5643 5634 5633 5601 5597 5583 5599 5635 5641 5655 5646 5646 5648 5644 5639 5634 5639
5659 5673 5683 5682 5679 5669 5663 5673 5665 5663 5650 5641 5643 5641 5642 5636 5636 5632 5634 5641 5638 5629 5629 5619 5613 5625 5635 5632 5634 5630 5617 5607 5587 5596 5591 5598 5628 5652 5634 5630 5620 5623 5625 5623 5624
5654 5660 5677 5675 5661 5675 5663 5651 5636 5648 5646 5637 5635 5631 5628 5629 5623 5623 5626 5629 5626 5618 5605 5613 5609 5608 5621 5642 5643 5630 5621 5609 5556 5582 5587 5581 5604 5635 5625 5623 5618 5610 5610 5615 5614
5638 5655 5671 5662 5653 5660 5658 5651 5647 5636 5635 5632 5627 5628 5627 5614 5601 5616 5619 5624 5616 5606 5598 5597 5603 5595 5617 5638 5629 5613 5615 5604 5603 5588 5576 5572 5601 5623 5620 5614 5614 5609 5600 5597 5600
5627 5636 5657 5657 5642 5627 5629 5632 5635 5638 5625 5624 5620 5617 5611 5607 5610 5603 5609 5615 5609 5599 5588 5575 5578 5582 5590 5608 5618 5609 5613 5616 5600 5565 5574 5591 5608 5618 5613 5608 5601 5599 5594 5590 5585
5619 5623 5616 5626 5632 5622 5617 5620 5619 5620 5622 5614 5609 5610 5605 5596 5598 5595 5602 5605 5603 5598 5593 5579 5570 5588 5607 5614 5613 5614 5615 5613 5608 5613 5599 5613 5610 5618 5609 5599 5596 5590 5589 5581 5573
5587 5592 5604 5603 5608 5607 5605 5609 5610 5611 5606 5602 5598 5598 5594 5587 5588 5590 5592 5595 5586 5592 5587 5584 5570 5571 5587 5600 5597 5604 5614 5619 5622 5622 5618 5613 5609 5612 5606 5601 5584 5584 5581 5577 5577
5573 5573 5570 5583 5593 5596 5602 5603 5598 5595 5595 5592 5585 5583 5581 5579 5581 5581 5581 5580 5578 5572 5576 5577 5571 5553 5554 5572 5588 5593 5611 5628 5624 5621 5612 5592 5605 5602 5603 5596 5587 5581 5579 5575 5569